Location: Unspecified
(0.0000°N, 0.0000°E)
Time: 13:50:57
(UTC+00:00)

JUGNU - Pass Details

Date: 26 February 2020
Orbit: 836 x 864 km, 20.0° (Epoch: 01 April)

Event Time Altitude Azimuth Distance (km) Brightness Sun altitude
Exits shadow 05:44:00 - 249° (WSW) 3,016 ? -7.2°
Reaches altitude 10° 05:45:30 10° 249° (WSW) 2,471 ? -6.8°
Maximum altitude 05:51:28 89° 333° (NNW) 857 ? -5.3°
Drops below altitude 10° 05:57:28 10° 68° (ENE) 2,483 ? -3.8°
Sets 06:00:03 0° 68° (ENE) 3,420 ? -3.2°
